Temp
62 62 61 61 61 61 61 61 61 61 61 62 62 62 63 63 62 78 86 88 90 76 75 99 99 99 101 98 100 101 87 85 89 87 90 98 95 101 102 100 100 103 101 102 102
61 61 61 61 61 61 61 61 61 61 61 61 62 62 63 63 81 88 86 77 77 76 94 95 93 97 95 97 98 93 87 89 96 96 93 96 96 97 97 96 97 98 102 103 102
61 61 61 61 61 61 61 61 60 60 61 61 62 62 62 66 82 93 75 75 76 79 98 101 101 97 92 97 96 94 87 94 93 95 96 95 95 99 97 94 99 98 100 101 99
60 60 60 60 60 60 60 61 61 60 61 61 62 62 63 79 79 94 76 75 75 94 98 97 96 91 90 90 97 88 95 93 95 95 95 93 98 95 97 97 102 102 102 101 98
59 60 60 59 60 60 60 60 61 61 61 61 62 62 70 83 90 91 76 78 92 94 96 95 92 92 89 93 93 90 93 94 95 96 96 96 94 95 95 98 102 103 100 99 99
59 59 59 59 59 59 59 60 60 60 61 61 62 63 79 80 100 98 96 93 97 97 97 98 95 98 93 92 90 94 94 93 96 95 95 92 95 93 95 98 99 99 100 101 99
59 59 59 59 59 59 59 59 60 60 61 62 62 75 83 88 101 101 99 97 100 99 95 101 101 94 95 90 96 92 86 90 92 93 92 94 89 89 94 97 95 96 98 99 100
59 58 58 58 59 59 59 59 61 61 62 62 63 82 83 100 104 100 101 99 101 101 101 100 100 97 94 96 90 87 88 82 92 93 93 90 82 91 95 94 92 94 96 97 97
59 58 58 58 58 59 59 59 62 62 63 64 74 82 84 84 92 100 101 94 96 97 98 97 96 92 92 85 83 85 79 81 84 93 92 88 85 90 94 92 90 93 93 94 94
58 57 57 57 58 58 58 59 62 63 69 81 87 81 89 88 95 97 101 99 93 92 90 89 90 85 87 84 75 79 79 84 82 88 88 87 86 89 91 92 90 90 91 90 87
58 57 57 57 57 58 64 79 78 77 84 85 87 87 90 96 99 94 98 94 93 88 80 86 81 78 84 87 88 85 82 81 86 90 86 85 86 89 89 90 89 88 86 85 84
58 57 57 57 57 58 71 88 87 89 79 92 91 92 93 95 85 91 98 86 84 79 84 83 76 87 90 88 83 83 80 80 86 89 84 84 84 89 88 88 88 86 83 81 78
57 57 57 57 58 66 90 88 97 94 79 88 92 90 91 93 86 88 92 89 83 80 83 79 84 89 86 82 79 80 79 80 80 85 85 82 80 84 87 88 85 83 82 79 78
56 56 56 54 64 95 90 94 98 94 72 79 82 88 93 92 83 98 95 90 86 80 84 83 89 83 82 79 82 75 85 83 81 78 71 83 69 80 84 81 82 80 81 80 77
56 56 56 52 86 92 91 98 98 89 60 82 83 95 92 86 90 88 98 91 81 82 84 80 82 82 78 81 85 78 87 82 80 77 76 77 72 79 84 78 80 81 81 81 81
56 56 56 77 88 94 97 96 90 69 60 77 84 81 81 85 87 91 88 93 92 83 85 83 91 86 84 86 86 87 82 80 80 77 66 74 74 76 81 81 83 83 81 80 81
56 56 65 87 86 97 96 88 69 64 81 75 76 80 80 79 81 82 79 78 75 69 71 80 80 86 87 81 85 82 75 65 62 64 63 78 74 76 84 89 88 81 81 80 81
54 52 69 93 96 94 89 77 60 73 74 80 77 78 74 81 80 81 78 75 80 79 75 71 68 80 85 81 78 77 75 67 57 61 69 79 68 77 88 88 89 85 83 81 81
52 86 92 91 93 91 80 67 69 71 72 71 75 72 74 79 78 79 77 78 81 81 70 71 72 86 87 86 83 77 71 80 69 72 67 73 76 80 84 81 83 82 80 78 80
76 87 85 92 92 85 75 64 72 74 73 74 66 73 68 76 75 75 76 82 80 85 87 77 66 81 84 86 85 80 84 70 71 54 52 65 69 72 75 76 79 78 77 77 78
76 81 87 93 91 80 70 71 72 76 72 68 68 68 70 70 73 73 74 81 83 83 85 81 73 72 80 76 74 76 72 74 73 70 58 58 66 78 74 78 77 79 79 79 78
81 76 87 89 75 81 73 68 59 72 74 70 70 69 67 68 67 68 70 76 79 79 73 78 71 65 70 82 85 80 75 73 63 60 66 64 65 84 83 84 81 81 82 83 82
74 78 87 85 68 70 71 68 70 67 67 65 65 69 68 64 60 68 70 79 75 73 70 73 67 59 63 73 79 72 75 75 73 69 61 57 64 81 80 81 83 83 85 83 81
73 69 76 78 71 61 60 64 63 69 65 64 63 66 62 61 65 62 66 74 72 71 61 64 64 62 59 66 73 66 70 72 69 62 64 66 69 75 76 78 80 81 83 83 81
70 63 61 62 62 59 61 60 57 57 61 61 59 60 56 50 56 58 65 68 72 67 67 67 57 63 67 70 71 70 69 69 66 68 62 67 67 75 66 66 71 78 82 82 81
62 59 64 65 61 59 53 56 52 54 53 52 52 55 54 48 51 49 55 56 54 64 64 65 54 60 59 67 68 65 69 70 71 72 70 70 69 79 82 75 79 81 81 80 81
66 68 63 53 58 56 52 51 51 54 55 56 54 51 49 52 57 57 57 55 52 50 50 50 52 53 49 62 63 54 65 68 70 72 71 64 72 79 78 79 81 81 81 81 81
MSLP
1018.26 1017.94 1017.67 1017.42 1017.20 1017.02 1016.85 1016.75 1016.63 1016.58 1016.45 1016.32 1016.22 1016.13 1015.99 1015.83 1015.57 1014.93 1012.21 1010.99 1010.49 1011.15 1011.59 1010.12 1009.76 1009.12 1008.57 1007.52 1006.91 1006.40 1005.00 1002.38 1001.37 1001.74 1001.89 1002.59 1002.16 1002.56 1002.57 1001.16 1001.35 1001.26 1001.93 1003.39 1005.74
1018.27 1017.91 1017.61 1017.30 1016.99 1016.78 1016.63 1016.50 1016.40 1016.38 1016.29 1016.21 1016.18 1016.08 1015.91 1015.79 1014.47 1011.95 1010.33 1010.71 1011.17 1011.41 1010.79 1009.41 1008.78 1008.35 1007.54 1006.60 1006.07 1005.78 1004.14 1002.23 1001.86 1002.35 1002.58 1002.90 1002.91 1002.89 1002.65 1002.46 1002.59 1003.33 1004.30 1005.09 1005.97
1018.32 1017.93 1017.49 1017.09 1016.78 1016.55 1016.37 1016.20 1016.15 1016.13 1016.12 1016.08 1016.02 1015.94 1015.84 1015.69 1013.21 1009.35 1010.36 1010.58 1011.08 1011.34 1009.94 1008.84 1007.98 1007.74 1006.83 1006.01 1005.52 1005.01 1004.06 1002.89 1003.60 1004.04 1003.95 1003.42 1003.34 1003.41 1002.79 1002.43 1002.67 1003.27 1004.13 1005.22 1005.91
1018.29 1017.85 1017.42 1017.00 1016.62 1016.34 1016.11 1015.91 1015.79 1015.84 1015.90 1015.94 1015.91 1015.84 1015.74 1014.85 1010.32 1009.54 1010.47 1010.80 1011.10 1010.62 1009.51 1008.47 1007.88 1007.14 1006.14 1005.27 1005.08 1004.80 1004.12 1004.21 1003.78 1004.47 1004.44 1003.91 1003.54 1003.57 1003.34 1003.43 1004.00 1004.33 1004.71 1005.26 1005.75
1018.30 1017.82 1017.35 1016.90 1016.51 1016.19 1015.95 1015.76 1015.60 1015.59 1015.68 1015.75 1015.74 1015.68 1015.58 1012.40 1008.95 1010.01 1010.63 1010.99 1010.79 1010.32 1008.78 1008.07 1007.32 1006.52 1005.48 1004.84 1004.75 1004.79 1004.00 1004.53 1004.53 1004.59 1004.38 1004.27 1004.11 1003.66 1003.70 1004.58 1004.67 1004.53 1005.17 1005.46 1005.76
1018.14 1017.67 1017.23 1016.76 1016.34 1016.04 1015.81 1015.62 1015.47 1015.42 1015.45 1015.47 1015.51 1015.58 1014.16 1010.32 1008.39 1009.17 1009.81 1010.32 1009.50 1009.07 1008.20 1007.56 1006.75 1006.08 1005.30 1004.75 1004.96 1004.22 1004.08 1004.40 1004.36 1004.18 1004.27 1004.41 1003.73 1004.71 1004.29 1004.95 1004.70 1004.88 1004.71 1005.01 1005.71
1017.91 1017.39 1016.89 1016.45 1016.13 1015.89 1015.69 1015.50 1015.37 1015.26 1015.26 1015.32 1015.35 1014.63 1012.01 1008.94 1008.35 1008.99 1009.25 1009.34 1008.85 1008.47 1007.82 1007.16 1006.64 1006.50 1005.44 1004.97 1004.94 1004.88 1004.65 1004.43 1004.18 1004.13 1003.96 1004.53 1003.67 1004.09 1004.84 1005.04 1005.00 1005.15 1005.25 1005.34 1005.51
1017.76 1017.19 1016.69 1016.21 1015.88 1015.66 1015.46 1015.27 1015.07 1015.08 1015.12 1015.17 1015.24 1013.80 1010.07 1008.46 1008.33 1008.60 1008.79 1008.56 1008.62 1008.44 1007.81 1007.67 1007.52 1006.56 1005.68 1005.06 1005.23 1004.67 1004.33 1002.97 1002.87 1003.66 1003.95 1004.61 1002.90 1003.72 1005.09 1005.14 1005.16 1005.51 1005.65 1005.73 1006.00
1017.58 1016.93 1016.44 1016.00 1015.63 1015.39 1015.24 1015.10 1014.92 1014.99 1015.01 1015.10 1014.57 1012.50 1008.78 1009.45 1008.53 1008.21 1008.28 1008.16 1008.53 1008.53 1008.35 1008.18 1007.90 1006.44 1005.91 1005.10 1004.34 1003.90 1002.74 1002.49 1002.34 1003.46 1003.33 1004.07 1002.85 1004.22 1005.08 1005.38 1005.57 1005.87 1006.42 1006.67 1007.12
1017.24 1016.57 1016.01 1015.61 1015.31 1015.11 1015.03 1015.03 1015.00 1015.05 1014.81 1013.94 1012.38 1011.06 1008.41 1007.37 1007.50 1007.85 1008.09 1007.85 1008.20 1008.27 1008.27 1008.17 1007.24 1006.06 1005.14 1004.29 1002.48 1001.95 1002.34 1001.65 1001.80 1003.06 1003.61 1003.26 1003.16 1004.10 1005.08 1005.32 1005.89 1006.46 1007.11 1007.89 1009.00
1016.95 1016.22 1015.56 1015.13 1014.91 1014.77 1014.66 1014.45 1014.30 1013.01 1011.72 1009.32 1008.15 1007.34 1006.77 1006.70 1007.34 1007.48 1007.76 1007.93 1007.85 1007.84 1007.15 1007.09 1006.13 1004.61 1003.59 1003.33 1002.46 1002.47 1001.99 1001.70 1002.07 1002.33 1003.23 1003.14 1003.01 1003.11 1004.81 1005.47 1006.11 1007.02 1007.95 1008.92 1009.98
1016.59 1015.84 1015.14 1014.68 1014.47 1014.48 1014.26 1010.94 1010.64 1010.25 1009.07 1007.44 1007.25 1006.73 1006.69 1007.00 1006.83 1006.87 1007.51 1007.40 1007.19 1006.60 1006.49 1005.82 1004.89 1003.82 1003.40 1003.16 1003.52 1003.35 1002.76 1002.36 1002.33 1002.66 1003.57 1003.13 1002.81 1003.03 1004.29 1005.50 1006.16 1007.40 1008.62 1009.88 1011.20
1016.41 1015.60 1014.97 1014.44 1014.19 1014.33 1011.42 1010.50 1010.06 1009.82 1008.42 1005.61 1005.72 1005.71 1005.95 1006.70 1005.79 1005.78 1006.77 1006.44 1006.03 1005.82 1005.06 1004.30 1003.19 1003.58 1003.33 1003.79 1003.90 1003.37 1002.82 1002.32 1002.26 1002.56 1003.63 1003.50 1002.45 1002.53 1003.94 1005.45 1007.22 1008.32 1009.32 1010.46 1011.23
1016.36 1015.62 1015.05 1014.79 1014.70 1010.93 1010.14 1010.30 1009.73 1009.82 1007.71 1005.08 1005.28 1004.87 1005.12 1005.72 1005.36 1004.59 1005.82 1005.70 1004.99 1004.63 1004.26 1003.60 1003.55 1003.54 1003.61 1003.49 1003.62 1002.92 1002.81 1002.89 1002.65 1002.90 1002.34 1002.42 1001.46 1001.28 1002.59 1005.05 1006.70 1008.21 1009.08 1010.29 1011.43
1016.10 1015.47 1014.99 1014.82 1012.49 1010.07 1010.43 1009.91 1009.74 1009.73 1006.00 1004.43 1004.67 1005.20 1004.65 1004.91 1003.54 1004.38 1004.82 1005.21 1004.35 1004.02 1003.87 1002.75 1002.95 1002.76 1003.25 1002.94 1003.08 1002.95 1002.76 1002.85 1003.25 1002.92 1002.64 1001.81 1001.72 1000.78 1001.58 1003.60 1005.44 1007.25 1008.72 1009.83 1010.77
1016.23 1015.24 1014.62 1013.14 1011.80 1010.54 1010.21 1009.94 1009.88 1008.38 1004.67 1003.65 1004.27 1004.61 1004.65 1004.51 1003.70 1003.42 1004.47 1005.01 1004.43 1004.03 1003.37 1003.10 1002.43 1002.84 1002.56 1002.91 1002.98 1003.22 1003.24 1003.45 1003.40 1002.92 1001.93 1001.51 1000.97 999.88 999.95 1001.47 1003.29 1005.96 1008.21 1009.55 1010.37
1016.01 1015.18 1014.35 1012.41 1010.95 1010.60 1010.27 1009.50 1008.25 1006.12 1004.59 1004.02 1004.12 1004.28 1003.98 1003.73 1003.92 1003.82 1004.17 1004.13 1003.79 1003.72 1002.87 1002.56 1002.58 1002.70 1002.80 1002.30 1002.65 1003.05 1003.09 1002.90 1002.56 1001.97 1000.61 1000.42 1000.08 999.74 999.75 1000.32 1001.97 1005.06 1007.36 1009.14 1010.11
1015.37 1014.94 1013.19 1011.69 1011.26 1010.84 1010.15 1008.80 1007.40 1005.49 1005.09 1005.41 1005.34 1004.93 1004.26 1003.42 1003.27 1003.36 1003.31 1003.34 1003.66 1003.20 1002.32 1001.53 1001.17 1001.56 1002.15 1002.28 1001.91 1002.48 1002.67 1001.98 1000.86 1000.23 999.25 998.70 999.27 999.42 1000.05 1001.71 1002.97 1005.14 1007.05 1008.63 1009.55
1014.63 1012.96 1011.54 1011.72 1011.44 1011.12 1010.00 1007.96 1006.65 1006.78 1007.49 1007.14 1006.20 1004.73 1003.85 1003.20 1003.39 1002.69 1002.66 1002.32 1002.13 1002.50 1002.49 1001.45 1000.46 1000.06 1000.65 1001.56 1002.31 1001.65 1001.69 1002.42 1001.85 1001.30 1000.53 999.44 999.56 1000.47 1001.10 1002.51 1003.61 1005.19 1006.89 1008.40 1009.21
1014.86 1012.07 1011.65 1011.68 1011.33 1010.88 1009.60 1008.07 1007.70 1008.66 1008.97 1008.25 1007.03 1005.72 1004.58 1003.22 1002.90 1003.05 1002.17 1001.85 1001.76 1001.58 1001.49 1001.72 1001.31 1000.65 1000.34 1001.44 1001.31 1001.47 1001.51 1001.38 1001.81 1001.78 1001.04 1000.13 999.47 998.91 1000.54 1002.19 1003.49 1004.94 1006.53 1008.01 1009.08
1014.81 1011.59 1011.64 1011.52 1010.84 1010.08 1008.80 1008.49 1009.16 1009.53 1010.24 1009.44 1008.18 1007.26 1006.33 1005.54 1004.56 1003.66 1002.78 1001.92 1001.97 1001.64 1001.61 1001.61 1001.83 1001.31 1000.87 1000.28 1001.07 1001.22 1001.64 1001.53 1001.62 1001.15 1000.66 1000.09 999.27 999.75 1000.68 1002.29 1003.46 1004.62 1005.88 1007.33 1008.55
1013.85 1011.11 1011.94 1011.60 1010.36 1009.64 1009.38 1010.89 1011.86 1010.58 1010.88 1010.58 1009.87 1009.14 1008.35 1007.62 1006.51 1005.29 1004.21 1003.46 1003.97 1003.94 1003.41 1003.32 1002.93 1001.62 1000.93 1000.49 1000.27 1000.78 1000.87 1001.21 1001.36 1001.53 1001.60 1000.92 999.60 999.82 1000.85 1001.34 1002.75 1003.98 1004.85 1006.37 1007.77
1015.11 1012.76 1012.25 1011.58 1010.77 1010.92 1011.62 1011.99 1011.98 1012.12 1012.18 1011.96 1011.20 1010.52 1010.36 1009.61 1008.59 1006.60 1005.75 1005.22 1005.68 1005.95 1005.37 1005.17 1003.56 1002.75 1001.85 1000.95 1000.30 1000.69 1001.19 1001.55 1001.47 1001.78 1001.27 1000.64 1000.05 1000.85 1001.88 1002.07 1002.64 1003.10 1003.68 1005.27 1006.98
1015.99 1013.63 1013.13 1013.24 1014.53 1014.63 1014.10 1013.03 1013.13 1013.40 1013.87 1014.00 1013.38 1012.80 1012.13 1011.08 1010.54 1008.61 1007.44 1006.71 1007.03 1007.61 1007.92 1007.86 1005.84 1003.79 1001.99 1000.80 1000.57 1000.52 1001.18 1001.53 1001.67 1001.28 1000.83 1000.32 1000.23 1000.37 1001.48 1002.55 1002.84 1003.21 1003.68 1004.94 1006.21
1017.41 1017.02 1017.95 1015.34 1015.85 1016.58 1016.22 1015.88 1015.43 1015.11 1015.87 1016.14 1014.66 1014.09 1014.48 1013.93 1012.35 1010.71 1009.79 1008.76 1008.00 1008.88 1008.89 1008.15 1006.65 1005.85 1003.85 1002.90 1002.01 1001.15 1001.06 1001.58 1001.46 1001.23 1000.65 1000.36 1000.31 1000.51 1001.60 1003.96 1004.57 1004.39 1003.94 1004.59 1005.47
1019.58 1019.76 1018.83 1017.61 1017.98 1017.59 1017.41 1017.26 1018.06 1017.91 1018.41 1017.81 1017.34 1016.84 1016.83 1016.46 1015.86 1014.45 1013.52 1012.80 1011.88 1010.55 1009.37 1008.87 1007.64 1007.25 1004.90 1003.85 1002.99 1001.99 1001.61 1001.01 1000.82 1000.52 1000.36 1000.33 1000.11 1000.83 1001.01 1002.62 1002.59 1002.70 1003.33 1004.00 1004.81
1022.41 1021.36 1020.20 1019.32 1018.99 1018.98 1019.53 1019.95 1019.86 1019.74 1019.40 1019.39 1019.04 1018.82 1018.27 1017.85 1017.40 1016.76 1016.33 1015.75 1015.08 1014.07 1012.77 1012.08 1010.27 1008.35 1005.95 1005.24 1003.88 1002.60 1000.67 1001.17 1000.89 1000.99 1000.82 1000.27 1000.22 1000.88 1001.02 1001.12 1001.29 1001.84 1002.77 1003.57 1004.52
Wind_Speed
14 13 12 11 10 9 8 8 8 8 8 8 8 9 9 9 10 11 14 1 7 9 5 12 12 13 13 15 9 10 12 14 12 3 8 4 3 6 4 6 5 10 21 16 15
15 14 13 11 10 9 8 7 7 7 7 7 7 8 9 8 14 16 7 12 8 6 13 14 15 14 13 13 9 11 13 15 10 6 3 4 6 4 6 4 9 7 9 8 12
16 15 14 13 11 9 8 7 7 7 6 7 7 7 8 10 15 6 9 12 8 11 17 13 13 13 17 13 15 14 17 5 5 3 7 7 7 2 7 7 10 10 10 8 8
17 16 15 13 12 10 9 8 6 6 6 6 6 7 6 13 3 9 9 9 8 14 18 13 13 15 16 15 17 16 14 4 3 3 9 9 6 9 8 11 8 2 4 5 6
17 17 16 14 12 11 9 8 6 5 6 6 6 5 7 10 7 12 11 9 12 13 14 15 16 16 15 12 9 14 12 9 7 10 10 3 12 10 4 7 6 3 5 3 5
17 17 16 14 12 11 9 7 5 5 6 6 6 5 10 14 7 15 16 14 12 12 13 14 12 15 13 8 12 13 11 10 14 12 9 11 11 5 6 1 3 3 6 8 5
18 17 16 15 12 10 9 7 5 5 6 7 8 7 11 9 1 13 15 15 11 12 10 12 8 7 7 11 11 6 11 14 13 11 11 9 14 13 6 2 2 1 0 4 5
18 17 17 15 12 10 8 7 6 5 7 7 7 10 9 4 5 12 14 13 8 8 11 5 8 13 11 2 6 15 15 15 18 14 9 9 15 13 7 5 3 2 6 2 3
19 18 16 14 12 9 6 5 3 7 4 8 8 9 11 5 12 14 12 11 10 8 8 1 11 13 12 11 14 13 14 18 12 12 12 14 15 14 7 6 3 2 7 8 15
21 19 16 13 10 6 4 3 8 8 8 9 10 8 10 13 15 15 13 9 12 11 10 13 10 11 13 14 15 16 17 10 8 13 9 14 12 13 8 8 6 4 7 9 10
22 20 16 12 8 5 8 6 8 9 13 12 5 8 6 5 11 14 14 11 14 15 16 16 14 14 18 18 18 11 6 9 11 9 12 16 14 14 11 10 9 7 5 8 11
24 21 16 10 6 5 8 8 8 8 10 18 19 13 3 13 12 17 16 16 14 17 18 12 18 18 16 7 9 14 14 14 11 9 10 17 19 9 13 13 5 7 7 6 8
24 21 16 10 5 6 11 7 8 7 8 8 12 17 15 13 16 19 21 21 16 19 20 20 11 22 12 12 15 16 17 14 14 15 11 16 17 18 13 9 9 6 7 6 6
24 20 14 8 2 3 4 4 7 3 8 13 11 8 16 14 15 16 22 20 14 19 21 19 19 10 16 17 17 18 16 15 11 14 14 23 14 21 21 17 15 11 10 10 10
27 22 14 4 12 5 7 8 8 5 8 8 10 6 6 18 1 21 21 24 21 17 15 19 16 16 18 19 19 16 15 12 16 13 16 15 12 14 22 20 17 13 10 9 11
26 22 15 6 9 7 9 7 6 9 6 8 7 9 10 19 12 11 18 23 16 20 18 19 10 14 17 17 17 13 14 10 14 14 16 20 18 14 15 23 23 18 14 12 11
26 20 12 8 8 10 9 8 9 10 5 3 2 4 9 13 19 12 17 22 19 15 20 20 23 14 14 13 12 17 12 12 15 15 16 20 21 14 2 11 15 20 17 15 12
28 18 6 4 9 9 8 10 10 2 5 7 7 9 14 13 17 19 17 19 24 25 16 18 18 24 19 21 16 16 17 14 18 15 17 14 10 11 6 9 11 16 16 14 13
29 6 3 8 10 7 9 9 8 10 7 9 14 15 15 15 11 16 22 20 20 23 24 19 20 6 25 20 21 20 21 20 23 20 18 14 11 9 14 15 15 17 15 14 13
8 5 7 12 7 7 10 13 4 5 9 10 14 11 13 14 15 16 18 14 24 24 22 20 22 22 11 12 19 24 17 14 12 19 20 17 18 13 21 19 18 18 17 15 14
6 6 8 15 5 8 9 7 5 5 7 8 12 15 15 16 18 17 20 14 11 14 14 15 18 21 22 18 20 17 17 18 15 15 14 17 15 10 16 15 17 16 16 15 16
7 5 9 11 9 1 5 5 2 7 9 9 9 14 17 17 20 21 21 20 5 8 17 14 17 20 27 26 22 21 24 22 16 23 15 19 18 3 3 12 20 18 17 16 16
8 4 9 12 5 4 5 10 5 9 10 8 11 10 11 14 12 15 19 20 7 9 6 9 14 17 22 19 20 12 19 20 19 14 19 17 14 6 7 6 6 10 14 16 16
6 4 5 5 8 11 11 8 8 3 10 8 14 14 16 16 17 15 16 15 0 10 10 6 15 19 18 21 20 23 24 21 24 18 19 22 24 16 15 12 9 11 11 14 16
6 6 5 8 9 11 9 11 11 11 13 18 10 2 10 11 18 20 20 20 22 8 11 10 20 23 29 29 29 29 22 25 26 24 22 21 21 20 12 6 20 16 10 12 15
7 7 7 3 7 11 3 13 12 16 16 14 17 17 19 16 19 24 25 20 15 15 13 12 20 20 27 27 27 28 26 30 28 24 26 24 25 18 18 27 27 18 16 15 14
8 4 7 5 9 9 10 11 14 15 7 17 18 18 19 19 20 22 19 20 20 22 20 19 16 17 24 23 25 23 32 25 25 24 23 25 23 19 18 20 18 13 11 10 13
Wind_Direction
356 349 341 332 324 313 300 287 283 283 283 291 295 291 287 287 286 232 241 232 169 149 230 211 215 224 236 249 235 251 267 258 207 232 118 116 21 69 333 346 334 50 50 68 125
355 349 341 335 331 324 312 300 286 278 281 283 284 282 283 291 262 253 173 122 127 172 211 200 207 213 226 231 222 235 245 262 32 53 353 68 302 14 239 171 140 130 94 99 145
352 348 343 338 334 329 318 299 282 275 273 273 273 275 278 282 266 193 138 132 170 208 236 216 226 214 232 224 220 235 253 357 133 15 310 311 253 231 273 226 76 43 107 138 170
349 347 343 338 335 331 325 312 288 268 258 257 258 263 277 254 296 79 126 137 164 209 232 220 230 216 234 221 235 244 244 326 217 155 259 258 328 253 243 44 37 310 37 130 183
345 344 342 338 334 331 325 316 294 259 244 237 238 247 248 224 249 126 136 151 184 212 215 209 216 219 228 218 211 233 246 221 254 239 242 253 239 266 192 33 286 273 153 235 196
341 339 339 337 334 328 322 314 297 253 232 223 219 213 246 252 88 136 170 173 210 216 215 212 219 228 264 236 221 204 246 224 232 233 202 239 226 195 102 260 246 271 258 183 217
339 336 336 336 332 324 319 308 291 233 216 211 207 238 261 278 111 153 171 191 211 223 208 231 274 203 237 227 236 233 243 229 230 228 235 236 249 215 82 184 162 224 37 329 198
337 333 332 332 327 321 317 313 284 199 198 200 208 244 272 101 188 178 184 195 199 228 229 199 267 242 243 176 218 234 226 244 199 212 203 230 245 125 169 193 147 82 59 95 125
336 331 330 328 322 315 310 301 164 171 184 182 215 234 249 127 203 188 194 188 182 197 236 255 250 235 214 229 221 207 231 218 139 198 206 211 233 131 182 181 164 130 71 42 79
336 332 327 323 315 302 283 251 153 165 209 210 268 246 223 214 185 185 201 203 188 190 190 211 222 227 225 218 224 210 218 188 223 173 215 217 238 143 181 189 187 111 93 84 81
339 336 327 319 303 256 166 175 200 195 208 242 208 236 130 97 151 189 190 198 193 201 209 203 220 216 222 226 265 308 266 255 198 170 207 228 233 178 167 212 185 135 100 92 77
341 339 335 325 285 227 256 258 32 340 282 236 240 238 173 173 184 188 184 196 201 209 212 189 230 244 239 238 255 249 250 246 253 213 211 246 237 235 162 219 192 168 137 113 108
343 341 342 348 131 179 254 32 317 317 265 232 223 219 208 213 227 190 193 209 198 214 211 234 229 215 239 221 237 237 247 243 246 192 218 263 256 221 171 187 163 169 131 126 114
343 342 343 12 303 161 200 317 301 344 268 154 194 215 211 198 228 225 195 212 224 229 232 226 246 202 246 228 228 249 223 260 262 238 239 210 248 215 182 192 190 171 174 151 138
339 337 326 270 320 248 348 310 328 237 266 143 129 94 206 207 69 199 185 218 230 221 244 233 227 229 233 231 227 246 276 211 245 243 255 233 238 272 175 188 191 180 170 157 149
336 328 324 212 239 20 322 305 244 235 240 136 128 190 194 212 215 166 196 223 233 252 232 257 258 239 242 242 243 239 246 237 242 247 242 242 254 244 189 192 194 164 169 162 161
333 323 306 293 343 330 319 238 237 245 95 115 92 214 227 201 227 182 212 208 221 224 240 227 243 211 247 233 205 222 216 225 220 225 244 241 235 234 215 174 178 156 165 168 168
327 318 204 310 331 321 288 249 263 354 346 34 295 283 262 244 210 223 222 218 217 244 253 224 226 219 205 233 221 220 220 246 249 243 249 193 219 240 139 120 131 153 159 164 177
313 202 245 359 326 302 271 249 291 23 14 321 304 258 256 232 256 229 230 237 230 211 244 259 259 217 214 204 233 233 212 237 264 277 279 271 200 129 147 158 159 159 162 174 180
312 262 70 336 332 275 260 263 309 23 335 297 288 299 286 281 213 234 246 235 240 252 224 235 259 272 212 219 232 232 259 227 233 256 266 273 274 267 169 175 171 170 176 179 179
262 261 47 339 289 240 255 18 337 25 357 310 297 296 291 290 291 273 278 268 311 266 264 268 251 250 258 202 228 220 241 252 272 267 258 254 248 7 154 203 182 188 180 183 185
297 274 23 332 263 294 320 16 22 292 308 293 286 275 274 284 281 280 273 275 52 304 280 243 258 251 249 253 215 234 253 224 234 239 250 265 275 23 226 168 179 192 186 188 195
329 318 43 326 324 23 15 313 276 309 331 315 301 307 318 296 286 261 264 269 55 306 322 315 241 249 251 244 244 233 242 256 264 255 258 266 260 26 61 269 218 222 196 178 194
308 313 34 79 51 344 354 308 310 5 313 339 304 308 286 276 273 267 271 280 4 304 15 321 268 258 248 246 240 213 232 252 254 253 257 256 267 252 175 209 221 218 198 186 181
1 68 4 349 6 337 319 312 334 330 4 320 309 259 338 312 312 286 282 289 278 300 263 249 261 256 259 264 273 276 257 229 240 255 248 256 265 266 109 58 264 230 215 203 198
13 349 342 36 350 328 76 27 334 343 333 312 308 327 332 308 299 301 310 306 304 293 315 292 269 264 265 259 258 259 257 257 267 249 240 246 252 267 282 186 201 208 206 215 214
4 351 284 95 345 350 22 343 327 327 315 329 321 309 300 302 310 306 305 293 284 291 292 293 288 273 255 257 255 251 247 254 253 255 263 263 269 269 257 260 260 223 239 232 222